Location: Karcze
(52.0945°N, 22.4786°E)
Time: 06:05:55
(UTC+00:00)

Nauka - Visible Passes

Search period start: 18 September 2021 00:00
Search period end: 28 September 2021 00:00
Orbit: 419 x 423 km, 51.6° (Epoch: 17 September)

Date Brightness Start Highest point End Pass type
(mag) Time Alt. Az. Time Alt. Az. Time Alt. Az.
18 Sep ? 17:19:33 10° S 17:21:35 15° SE 17:23:27 11° ESE visible
18 Sep ? 18:54:36 10° SW 18:56:29 29° SW 18:56:29 29° SW visible
19 Sep ? 18:07:53 10° SW 18:11:03 39° SSE 18:11:43 35° SE visible
19 Sep ? 19:44:22 10° W 19:44:44 13° W 19:44:44 13° W visible
20 Sep ? 17:21:19 10° SSW 17:24:16 29° SSE 17:26:50 13° E visible
20 Sep ? 18:57:29 10° WSW 18:59:50 41° WSW 18:59:50 41° WSW visible
21 Sep ? 18:10:38 10° WSW 18:13:59 64° SSE 18:14:51 44° ESE visible
21 Sep ? 19:47:24 10° W 19:47:51 13° W 19:47:51 13° W visible
22 Sep ? 17:23:50 10° WSW 17:27:07 52° SSE 17:29:47 15° E visible
22 Sep ? 19:00:29 10° W 19:02:47 40° W 19:02:47 40° W visible
23 Sep ? 18:13:35 10° W 18:16:58 83° S 18:17:39 54° E visible
23 Sep ? 19:50:25 10° W 19:50:39 12° W 19:50:39 12° W visible
24 Sep ? 17:26:41 10° WSW 17:30:04 76° S 17:32:30 18° E visible
24 Sep ? 19:03:30 10° W 19:05:29 32° W 19:05:29 32° W visible
25 Sep ? 18:16:35 10° W 18:19:59 82° S 18:20:19 69° ESE visible
26 Sep ? 17:29:39 10° W 17:33:03 85° S 17:35:07 22° E visible
26 Sep ? 19:06:30 10° W 19:08:06 24° W 19:08:06 24° W visible
27 Sep ? 18:19:35 10° W 18:22:55 62° SSW 18:22:55 62° SSW visible
